Richmond, KY

6:23 AM EDT on April 27, 2017 (GMT -0400)
Richmond

Weather History for KI39 - November, 2013

Change the Weather History Date:

Thursday, November 21, 2013

  Actual Average (KLOZ) Record (KLOZ)
Temperature  
Mean Temperature 48 °F -  
Max Temperature 60 °F 51 °F 75 °F (1979)
Min Temperature 37 °F 33 °F 15 °F (1964)
Degree Days  
Heating Degree Days 16    
Moisture  
Dew Point 38 °F    
Average Humidity 58    
Maximum Humidity 77    
Minimum Humidity 43    
Precipitation  
Precipitation 0.00 in - - ()
Sea Level Pressure  
Sea Level Pressure 30.27 in    
Wind  
Wind Speed 4 mph (South)    
Max Wind Speed 13 mph    
Max Gust Speed 18 mph    
Visibility 10 miles    
Events      
Averages and records for this station are not official NWS values.
T = Trace of Precipitation, MM = Missing Value Source: NWS Daily Summary

Daily Weather History Graph

Daily Weather History Graph

Search for Another Location

Airport or City:

Trip Planner

Search our weather history database for the weather conditions in past years. The results will help you decide how hot, cold, wet, or windy it might be!

Date:

Astronomy

Nov. 21, 2013 Rise Set
Actual Time 7:23 AM EST 5:22 PM EST
Civil Twilight 6:55 AM EST 5:50 PM EST
Nautical Twilight 6:23 AM EST 6:22 PM EST
Astronomical Twilight 5:52 AM EST 6:53 PM EST
Moon 8:57 PM EST (11/21) 10:30 AM EST (11/21)
Length of Visible Light 10h 55m
Length of Day
9h 58m
Waning Gibbous, 85% of the Moon is Illuminated
Nov 21
Waning Gibbous
Nov 25
Last Quarter
Dec 2
New
Dec 9
First Quarter
Dec 17
Full

Hourly Weather History & Observations

Time (EST) Temp. Windchill Dew Point Humidity Pressure Visibility Wind Dir Wind Speed Gust Speed Precip Events Conditions
12:15 AM 46.4 °F - 24.8 °F 43% 30.25 in 10.0 mi Calm Calm - N/A   Clear
12:35 AM 46.4 °F - 24.8 °F 43% 30.24 in 10.0 mi Calm Calm - N/A   Clear
12:55 AM 46.4 °F - 24.8 °F 43% 30.25 in 10.0 mi Calm Calm - N/A   Clear
1:15 AM 42.8 °F - 26.6 °F 53% 30.25 in 10.0 mi Calm Calm - N/A   Clear
1:35 AM 42.8 °F - 26.6 °F 53% 30.25 in 10.0 mi Calm Calm - N/A   Clear
1:55 AM 44.6 °F - 24.8 °F 46% 30.25 in 10.0 mi Calm Calm - N/A   Clear
2:15 AM 42.8 °F - 26.6 °F 53% 30.27 in 10.0 mi Calm Calm - N/A   Clear
2:35 AM 41.0 °F - 26.6 °F 57% 30.27 in 10.0 mi Calm Calm - N/A   Clear
2:55 AM 37.4 °F - 28.4 °F 70% 30.27 in 10.0 mi Calm Calm - N/A   Clear
3:15 AM 37.4 °F - 28.4 °F 70% 30.28 in 10.0 mi Calm Calm - N/A   Clear
3:35 AM 42.8 °F 41.1 °F 26.6 °F 53% 30.28 in 10.0 mi South 3.5 mph - N/A   Clear
3:55 AM 42.8 °F 40.1 °F 26.6 °F 53% 30.28 in 10.0 mi South 4.6 mph - N/A   Clear
4:15 AM 44.6 °F 40.7 °F 26.6 °F 49% 30.27 in 10.0 mi SSE 6.9 mph - N/A   Scattered Clouds
4:35 AM 44.6 °F 43.1 °F 26.6 °F 49% 30.29 in 10.0 mi South 3.5 mph - N/A   Mostly Cloudy
4:55 AM 44.6 °F 41.4 °F 28.4 °F 53% 30.29 in 10.0 mi SSE 5.8 mph - N/A   Overcast
5:15 AM 44.6 °F 41.4 °F 28.4 °F 53% 30.29 in 10.0 mi SSE 5.8 mph - N/A   Overcast
5:35 AM 46.4 °F 45.2 °F 28.4 °F 50% 30.29 in 10.0 mi SSE 3.5 mph - N/A   Overcast
5:55 AM 42.8 °F 40.1 °F 30.2 °F 61% 30.29 in 10.0 mi SE 4.6 mph - N/A   Mostly Cloudy
6:15 AM 44.6 °F 42.2 °F 30.2 °F 57% 30.30 in 10.0 mi SSE 4.6 mph - N/A   Overcast
6:35 AM 46.4 °F 42.9 °F 28.4 °F 50% 30.30 in 10.0 mi South 6.9 mph - N/A   Overcast
6:55 AM 46.4 °F 42.4 °F 30.2 °F 53% 30.29 in 10.0 mi SSE 8.1 mph - N/A   Mostly Cloudy
7:15 AM 46.4 °F 42.4 °F 30.2 °F 53% 30.29 in 10.0 mi South 8.1 mph - N/A   Scattered Clouds
7:35 AM 46.4 °F 41.9 °F 32.0 °F 57% 30.29 in 10.0 mi SSE 9.2 mph - N/A   Mostly Cloudy
7:55 AM 48.2 °F - 32.0 °F 54% 30.30 in 10.0 mi South 6.9 mph - N/A   Scattered Clouds
8:15 AM 46.4 °F 43.5 °F 32.0 °F 57% 30.30 in 10.0 mi SSE 5.8 mph - N/A   Scattered Clouds
8:35 AM 48.2 °F - 32.0 °F 54% 30.32 in 10.0 mi SSW 4.6 mph - N/A   Scattered Clouds
8:55 AM 46.4 °F - 32.0 °F 57% 30.33 in 10.0 mi Calm Calm - N/A   Mostly Cloudy
9:15 AM 50.0 °F - 33.8 °F 54% 30.33 in 10.0 mi South 5.8 mph - N/A   Overcast
9:35 AM 50.0 °F - 33.8 °F 54% 30.33 in 10.0 mi South 3.5 mph - N/A   Overcast
9:55 AM 50.0 °F - 33.8 °F 54% 30.33 in 10.0 mi SSE 6.9 mph - N/A   Overcast
10:15 AM 51.8 °F - 35.6 °F 54% 30.33 in 10.0 mi South 6.9 mph - N/A   Overcast
10:35 AM 51.8 °F - 35.6 °F 54% 30.34 in 10.0 mi South 3.5 mph - N/A   Overcast
10:55 AM 53.6 °F - 35.6 °F 51% 30.34 in 10.0 mi South 5.8 mph - N/A   Overcast
11:15 AM 57.2 °F - 37.4 °F 48% 30.33 in 10.0 mi South 5.8 mph - N/A   Mostly Cloudy
11:35 AM 57.2 °F - 37.4 °F 48% 30.33 in 10.0 mi South 4.6 mph - N/A   Mostly Cloudy
11:55 AM 57.2 °F - 39.2 °F 51% 30.31 in 10.0 mi South 9.2 mph - N/A   Mostly Cloudy
12:15 PM 57.2 °F - 41.0 °F 55% 30.30 in 10.0 mi SSW 8.1 mph - N/A   Mostly Cloudy
12:35 PM 57.2 °F - 41.0 °F 55% 30.30 in 10.0 mi SSW 9.2 mph - N/A   Overcast
12:55 PM 55.4 °F - 41.0 °F 58% 30.29 in 10.0 mi South 6.9 mph - N/A   Overcast
1:15 PM 59.0 °F - 42.8 °F 55% 30.28 in 10.0 mi SSW 8.1 mph - N/A   Overcast
1:35 PM 59.0 °F - 42.8 °F 55% 30.27 in 10.0 mi South 10.4 mph - N/A   Mostly Cloudy
1:55 PM 59.0 °F - 42.8 °F 55% 30.26 in 10.0 mi South 10.4 mph - N/A   Overcast
2:15 PM 59.0 °F - 42.8 °F 55% 30.24 in 10.0 mi South 9.2 mph - N/A   Overcast
2:35 PM 60.8 °F - 42.8 °F 52% 30.24 in 10.0 mi South 6.9 mph - N/A   Overcast
2:55 PM 59.0 °F - 42.8 °F 55% 30.23 in 10.0 mi South 11.5 mph 18.4 mph N/A   Overcast
3:15 PM 60.8 °F - 44.6 °F 55% 30.22 in 10.0 mi South 9.2 mph - N/A   Overcast
3:35 PM 60.8 °F - 44.6 °F 55% 30.22 in 10.0 mi SSW 9.2 mph 16.1 mph N/A   Overcast
3:55 PM 60.8 °F - 44.6 °F 55% 30.22 in 10.0 mi South 8.1 mph - N/A   Overcast
4:15 PM 60.8 °F - 46.4 °F 59% 30.22 in 10.0 mi South 8.1 mph - N/A   Overcast
4:35 PM 59.0 °F - 46.4 °F 63% 30.22 in 10.0 mi South 9.2 mph - N/A   Overcast
4:55 PM 59.0 °F - 46.4 °F 63% 30.22 in 10.0 mi South 8.1 mph - N/A   Overcast
5:15 PM 59.0 °F - 46.4 °F 63% 30.23 in 10.0 mi South 6.9 mph - N/A   Overcast
5:35 PM 59.0 °F - 46.4 °F 63% 30.23 in 10.0 mi South 9.2 mph - N/A   Overcast
5:55 PM 59.0 °F - 46.4 °F 63% 30.24 in 10.0 mi South 8.1 mph - N/A   Overcast
6:15 PM 59.0 °F - 46.4 °F 63% 30.25 in 10.0 mi SSW 9.2 mph - N/A   Overcast
6:35 PM 59.0 °F - 46.4 °F 63% 30.25 in 10.0 mi South 8.1 mph - N/A   Overcast
6:55 PM 59.0 °F - 46.4 °F 63% 30.25 in 10.0 mi South 6.9 mph - N/A   Overcast
7:15 PM 57.2 °F - 46.4 °F 67% 30.26 in 10.0 mi South 6.9 mph - N/A   Mostly Cloudy
7:35 PM 57.2 °F - 46.4 °F 67% 30.27 in 10.0 mi South 3.5 mph - N/A   Scattered Clouds
7:55 PM 57.2 °F - 46.4 °F 67% 30.26 in 10.0 mi South 4.6 mph - N/A   Scattered Clouds
8:15 PM 57.2 °F - 46.4 °F 67% 30.27 in 10.0 mi SSE 4.6 mph - N/A   Scattered Clouds
8:35 PM 57.2 °F - 46.4 °F 67% 30.27 in 10.0 mi Calm Calm - N/A   Mostly Cloudy
8:55 PM 57.2 °F - 46.4 °F 67% 30.27 in 10.0 mi South 4.6 mph - N/A   Overcast
9:15 PM 57.2 °F - 46.4 °F 67% 30.26 in 10.0 mi South 5.8 mph - N/A   Overcast
9:35 PM 57.2 °F - 46.4 °F 67% 30.25 in 10.0 mi South 6.9 mph - N/A   Overcast
9:55 PM 57.2 °F - 48.2 °F 72% 30.23 in 10.0 mi SSE 9.2 mph - N/A   Overcast
10:15 PM 57.2 °F - 50.0 °F 77% 30.23 in 10.0 mi South 10.4 mph 16.1 mph N/A   Overcast
10:35 PM 57.2 °F - 50.0 °F 77% 30.21 in 10.0 mi SSE 10.4 mph 18.4 mph N/A   Overcast
10:55 PM 57.2 °F - 50.0 °F 77% 30.23 in 10.0 mi SSW 11.5 mph - N/A   Overcast
11:15 PM 57.2 °F - 50.0 °F 77% 30.23 in 10.0 mi SSW 10.4 mph - N/A   Overcast
11:35 PM 57.2 °F - 50.0 °F 77% 30.22 in 10.0 mi South 11.5 mph 17.3 mph N/A   Overcast
11:55 PM 57.2 °F - 50.0 °F 77% 30.23 in 10.0 mi South 12.7 mph 16.1 mph N/A   Overcast